Location: Palmerston North
(40.3500°S, 175.6170°E)
Time: 17:11:49
(UTC+13:00)

Cosmos 2315 Rocket - Pass Details

Date: 24 January 2019
Orbit: 966 x 1002 km, 82.9° (Epoch: 17 October)

Event Time Altitude Azimuth Distance (km) Brightness Sun altitude
Rises 21:56:21 0° 188° (S) 3,747 7.8 -12.5°
Reaches altitude 10° 21:58:54 10° 189° (S) 2,786 7.1 -12.9°
Maximum altitude 22:05:19 85° 275° (W) 1,003 4.1 -13.8°
Drops below altitude 10° 22:11:35 10° 3° (N) 2,727 5.9 -14.7°
Enters shadow 22:11:55 - 3° (N) 2,851 6.0 -14.8°
